Time,TemperatureF,DewpointF,PressureIn,WindDirection,WindDirectionDegrees,WindSpeedMPH,WindSpeedGustMPH,Humidity,HourlyPrecipIn,Conditions,Clouds,dailyrainin,SoftwareType,DateUTC
2013-04-07 00:03:00,30.0,12.0,30.37,SW,217,0.0,0.0,46,0.00,,,0.00,,2013-04-07 04:03:00,
2013-04-07 00:15:00,30.0,12.0,30.37,SW,217,0.0,0.0,46,0.00,,,0.00,,2013-04-07 04:15:00,
2013-04-07 00:23:00,29.0,10.0,30.38,SW,217,0.0,0.0,45,0.00,,,0.00,,2013-04-07 04:23:00,
2013-04-07 00:32:00,29.0,9.0,30.38,SW,217,0.0,0.0,43,0.00,,,0.00,,2013-04-07 04:32:00,
2013-04-07 00:43:00,29.0,9.0,30.38,SW,217,0.0,0.0,43,0.00,,,0.00,,2013-04-07 04:43:00,
2013-04-07 00:52:00,29.0,10.0,30.37,SW,217,0.0,0.0,45,0.00,,,0.00,,2013-04-07 04:52:00,
2013-04-07 01:02:00,29.0,10.0,30.37,SW,217,0.0,0.0,45,0.00,,,0.00,,2013-04-07 05:02:00,
2013-04-07 01:12:00,29.0,10.0,30.37,SW,217,0.0,0.0,45,0.00,,,0.00,,2013-04-07 05:12:00,
2013-04-07 01:23:00,29.0,17.0,30.37,SW,217,0.0,0.0,60,0.00,,,0.00,,2013-04-07 05:23:00,
2013-04-07 01:33:00,28.0,13.0,30.36,SW,217,0.0,0.0,53,0.00,,,0.00,,2013-04-07 05:33:00,
2013-04-07 01:43:00,28.0,13.0,30.36,SW,217,0.0,0.0,53,0.00,,,0.00,,2013-04-07 05:43:00,
2013-04-07 01:52:00,29.0,14.0,30.35,SW,217,0.0,0.0,53,0.00,,,0.00,,2013-04-07 05:52:00,
2013-04-07 02:02:00,28.0,13.0,30.35,SW,217,0.0,0.0,53,0.00,,,0.00,,2013-04-07 06:02:00,
2013-04-07 02:12:00,28.0,13.0,30.35,SW,217,0.0,0.0,53,0.00,,,0.00,,2013-04-07 06:12:00,
2013-04-07 02:22:00,28.0,16.0,30.35,SW,217,0.0,0.0,60,0.00,,,0.00,,2013-04-07 06:22:00,
2013-04-07 02:32:00,28.0,16.0,30.35,SW,217,0.0,0.0,60,0.00,,,0.00,,2013-04-07 06:32:00,
2013-04-07 02:43:00,28.0,16.0,30.35,SW,217,0.0,0.0,60,0.00,,,0.00,,2013-04-07 06:43:00,
2013-04-07 02:52:00,28.0,16.0,30.35,SW,217,0.0,0.0,60,0.00,,,0.00,,2013-04-07 06:52:00,
2013-04-07 04:23:00,28.0,17.0,30.33,SW,217,0.0,0.0,64,0.00,,,0.00,,2013-04-07 08:23:00,
2013-04-07 04:33:00,28.0,17.0,30.33,SW,217,0.0,0.0,64,0.00,,,0.00,,2013-04-07 08:33:00,
2013-04-07 04:43:00,28.0,17.0,30.33,SW,217,0.0,0.0,64,0.00,,,0.00,,2013-04-07 08:43:00,
2013-04-07 04:53:00,28.0,17.0,30.33,SW,217,0.0,0.0,64,0.00,,,0.00,,2013-04-07 08:53:00,
2013-04-07 05:02:00,28.0,18.0,30.33,SW,217,0.0,0.0,67,0.00,,,0.00,,2013-04-07 09:02:00,
2013-04-07 05:13:00,28.0,18.0,30.33,SW,217,0.0,0.0,67,0.00,,,0.00,,2013-04-07 09:13:00,
2013-04-07 05:23:00,28.0,19.0,30.33,SW,217,0.0,0.0,68,0.00,,,0.00,,2013-04-07 09:23:00,
2013-04-07 05:33:00,28.0,19.0,30.33,SW,217,0.0,0.0,68,0.00,,,0.00,,2013-04-07 09:33:00,
2013-04-07 05:43:00,28.0,19.0,30.33,SW,217,0.0,0.0,68,0.00,,,0.00,,2013-04-07 09:43:00,
2013-04-07 05:53:00,28.0,18.0,30.34,SW,217,0.0,0.0,67,0.00,,,0.00,,2013-04-07 09:53:00,
2013-04-07 06:04:00,28.0,19.0,30.34,SW,217,0.0,0.0,69,0.00,,,0.00,,2013-04-07 10:04:00,
2013-04-07 06:14:00,28.0,19.0,30.34,SW,217,0.0,0.0,69,0.00,,,0.00,,2013-04-07 10:14:00,
2013-04-07 06:23:00,28.0,20.0,30.34,SW,217,0.0,0.0,71,0.00,,,0.00,,2013-04-07 10:23:00,
2013-04-07 06:34:00,28.0,20.0,30.35,SW,217,0.0,0.0,73,0.00,,,0.00,,2013-04-07 10:34:00,
2013-04-07 06:43:00,28.0,20.0,30.35,SW,217,0.0,0.0,73,0.00,,,0.00,,2013-04-07 10:43:00,
2013-04-07 06:53:00,27.0,20.0,30.35,SW,217,0.0,0.0,74,0.00,,,0.00,,2013-04-07 10:53:00,
2013-04-07 07:03:00,27.0,20.0,30.35,SW,217,0.0,1.0,76,0.00,,,0.00,,2013-04-07 11:03:00,
2013-04-07 07:12:00,27.0,20.0,30.35,SW,217,0.0,1.0,76,0.00,,,0.00,,2013-04-07 11:12:00,
2013-04-07 07:23:00,27.0,20.0,30.35,SW,217,0.0,0.0,74,0.00,,,0.00,,2013-04-07 11:23:00,
2013-04-07 07:33:00,27.0,20.0,30.36,SW,217,0.0,0.0,74,0.00,,,0.00,,2013-04-07 11:33:00,
2013-04-07 07:43:00,27.0,20.0,30.36,SW,217,0.0,0.0,74,0.00,,,0.00,,2013-04-07 11:43:00,
2013-04-07 08:03:00,29.0,22.0,30.36,SW,217,0.0,0.0,75,0.00,,,0.00,,2013-04-07 12:03:00,
2013-04-07 08:12:00,29.0,22.0,30.36,SW,217,0.0,0.0,75,0.00,,,0.00,,2013-04-07 12:12:00,
2013-04-07 08:23:00,30.0,24.0,30.36,SW,217,0.0,1.0,77,0.00,,,0.00,,2013-04-07 12:23:00,
2013-04-07 08:34:00,32.0,26.0,30.36,SW,217,0.0,1.0,77,0.00,,,0.00,,2013-04-07 12:34:00,
2013-04-07 08:43:00,32.0,26.0,30.36,SW,217,0.0,1.0,77,0.00,,,0.00,,2013-04-07 12:43:00,
2013-04-07 08:53:00,34.0,28.0,30.35,WSW,257,0.0,4.0,79,0.00,,,0.00,,2013-04-07 12:53:00,
2013-04-07 09:05:00,35.0,29.0,30.35,WNW,296,1.0,4.0,80,0.00,,,0.00,,2013-04-07 13:05:00,
2013-04-07 09:13:00,35.0,29.0,30.35,WNW,296,1.0,4.0,80,0.00,,,0.00,,2013-04-07 13:13:00,
2013-04-07 09:23:00,36.0,30.0,30.34,WSW,253,0.0,3.0,78,0.00,,,0.00,,2013-04-07 13:23:00,
2013-04-07 09:33:00,37.0,30.0,30.34,WNW,290,0.0,3.0,77,0.00,,,0.00,,2013-04-07 13:33:00,
2013-04-07 09:42:00,37.0,30.0,30.34,WNW,290,0.0,3.0,77,0.00,,,0.00,,2013-04-07 13:42:00,
2013-04-07 09:52:00,38.0,30.0,30.34,SW,230,2.0,6.0,73,0.00,,,0.00,,2013-04-07 13:52:00,
2013-04-07 10:02:00,40.0,30.0,30.33,WNW,287,3.0,6.0,66,0.00,,,0.00,,2013-04-07 14:02:00,
2013-04-07 10:12:00,40.0,30.0,30.33,WNW,287,3.0,6.0,66,0.00,,,0.00,,2013-04-07 14:12:00,
2013-04-07 10:23:00,41.0,29.0,30.32,NW,309,0.0,7.0,63,0.00,,,0.00,,2013-04-07 14:23:00,
2013-04-07 10:33:00,42.0,29.0,30.32,West,266,3.0,9.0,59,0.00,,,0.00,,2013-04-07 14:33:00,
2013-04-07 10:53:00,43.0,28.0,30.31,SSW,194,0.0,8.0,55,0.00,,,0.00,,2013-04-07 14:53:00,
2013-04-07 11:03:00,43.0,25.0,30.30,NW,314,1.0,9.0,48,0.00,,,0.00,,2013-04-07 15:03:00,
2013-04-07 11:13:00,45.0,27.0,30.30,North,5,0.0,7.0,49,0.00,,,0.00,,2013-04-07 15:13:00,
2013-04-07 11:22:00,45.0,27.0,30.30,North,5,0.0,7.0,49,0.00,,,0.00,,2013-04-07 15:22:00,
2013-04-07 11:35:00,46.0,26.0,30.29,NNW,342,1.0,8.0,45,0.00,,,0.00,,2013-04-07 15:35:00,
2013-04-07 11:45:00,46.0,26.0,30.29,NNW,342,1.0,8.0,45,0.00,,,0.00,,2013-04-07 15:45:00,
2013-04-07 11:53:00,46.0,25.0,30.29,SE,125,0.0,9.0,44,0.00,,,0.00,,2013-04-07 15:53:00,
2013-04-07 12:05:00,45.0,25.0,30.27,NE,36,0.0,11.0,45,0.00,,,0.00,,2013-04-07 16:05:00,
2013-04-07 12:14:00,45.0,25.0,30.27,NE,36,0.0,11.0,45,0.00,,,0.00,,2013-04-07 16:14:00,
2013-04-07 12:25:00,47.0,28.0,30.27,SSE,166,1.0,11.0,47,0.00,,,0.00,,2013-04-07 16:25:00,
2013-04-07 12:34:00,48.0,29.0,30.26,South,189,4.0,10.0,48,0.00,,,0.00,,2013-04-07 16:34:00,
2013-04-07 12:43:00,48.0,29.0,30.26,South,189,4.0,10.0,48,0.00,,,0.00,,2013-04-07 16:43:00,
2013-04-07 12:53:00,48.0,30.0,30.25,NNW,336,3.0,7.0,50,0.00,,,0.00,,2013-04-07 16:53:00,
2013-04-07 13:05:00,50.0,31.0,30.24,East,84,4.0,15.0,47,0.00,,,0.00,,2013-04-07 17:05:00,
2013-04-07 13:13:00,50.0,31.0,30.24,East,84,4.0,15.0,47,0.00,,,0.00,,2013-04-07 17:13:00,
2013-04-07 13:23:00,50.0,30.0,30.22,NNW,341,2.0,15.0,46,0.00,,,0.00,,2013-04-07 17:23:00,
2013-04-07 13:33:00,51.0,31.0,30.22,WNW,291,3.0,8.0,47,0.00,,,0.00,,2013-04-07 17:33:00,
2013-04-07 13:43:00,51.0,31.0,30.22,WNW,291,3.0,8.0,47,0.00,,,0.00,,2013-04-07 17:43:00,
2013-04-07 13:53:00,50.0,30.0,30.21,SSE,159,4.0,12.0,46,0.00,,,0.00,,2013-04-07 17:53:00,
2013-04-07 14:03:00,51.0,31.0,30.20,West,267,4.0,10.0,47,0.00,,,0.00,,2013-04-07 18:03:00,
2013-04-07 14:14:00,51.0,31.0,30.20,West,267,4.0,10.0,47,0.00,,,0.00,,2013-04-07 18:14:00,
2013-04-07 14:23:00,52.0,33.0,30.19,South,185,2.0,13.0,48,0.00,,,0.00,,2013-04-07 18:23:00,
2013-04-07 14:33:00,51.0,31.0,30.19,SSE,150,2.0,15.0,46,0.00,,,0.00,,2013-04-07 18:33:00,
2013-04-07 14:43:00,51.0,31.0,30.19,SSE,150,2.0,15.0,46,0.00,,,0.00,,2013-04-07 18:43:00,
2013-04-07 14:52:00,51.0,33.0,30.19,SW,235,3.0,12.0,49,0.00,,,0.00,,2013-04-07 18:52:00,
2013-04-07 15:03:00,51.0,33.0,30.18,WSW,247,3.0,8.0,49,0.00,,,0.00,,2013-04-07 19:03:00,
2013-04-07 15:13:00,51.0,33.0,30.18,WSW,247,3.0,8.0,49,0.00,,,0.00,,2013-04-07 19:13:00,
2013-04-07 15:23:00,51.0,33.0,30.17,SSE,157,4.0,9.0,49,0.00,,,0.00,,2013-04-07 19:23:00,
2013-04-07 15:33:00,52.0,34.0,30.16,South,187,4.0,12.0,50,0.00,,,0.00,,2013-04-07 19:33:00,
2013-04-07 15:43:00,52.0,34.0,30.16,South,187,4.0,12.0,50,0.00,,,0.00,,2013-04-07 19:43:00,
2013-04-07 15:53:00,51.0,34.0,30.16,West,272,4.0,9.0,51,0.00,,,0.00,,2013-04-07 19:53:00,
2013-04-07 16:03:00,51.0,35.0,30.15,South,184,3.0,12.0,54,0.00,,,0.00,,2013-04-07 20:03:00,
2013-04-07 16:13:00,51.0,35.0,30.15,South,184,3.0,12.0,54,0.00,,,0.00,,2013-04-07 20:13:00,
2013-04-07 16:23:00,51.0,35.0,30.15,WSW,242,3.0,9.0,54,0.00,,,0.00,,2013-04-07 20:23:00,
2013-04-07 16:33:00,50.0,35.0,30.13,SW,225,2.0,10.0,56,0.00,,,0.00,,2013-04-07 20:33:00,
2013-04-07 16:43:00,50.0,35.0,30.13,SW,225,2.0,10.0,56,0.00,,,0.00,,2013-04-07 20:43:00,
2013-04-07 16:52:00,50.0,35.0,30.13,SSW,196,1.0,9.0,57,0.00,,,0.00,,2013-04-07 20:52:00,
2013-04-07 17:04:00,50.0,35.0,30.12,SW,232,3.0,9.0,56,0.00,,,0.00,,2013-04-07 21:04:00,
2013-04-07 17:13:00,50.0,35.0,30.12,SW,232,3.0,9.0,56,0.00,,,0.00,,2013-04-07 21:13:00,
2013-04-07 17:23:00,49.0,34.0,30.10,SSW,205,3.0,12.0,57,0.00,,,0.00,,2013-04-07 21:23:00,
2013-04-07 17:34:00,49.0,36.0,30.09,East,95,3.0,13.0,60,0.00,,,0.00,,2013-04-07 21:34:00,
2013-04-07 17:44:00,49.0,36.0,30.09,East,95,3.0,13.0,60,0.00,,,0.00,,2013-04-07 21:44:00,
2013-04-07 17:53:00,49.0,35.0,30.10,NW,319,4.0,10.0,58,0.00,,,0.00,,2013-04-07 21:53:00,
2013-04-07 18:05:00,49.0,35.0,30.10,NW,326,1.0,7.0,59,0.00,,,0.00,,2013-04-07 22:05:00,
2013-04-07 18:14:00,49.0,35.0,30.10,NW,326,1.0,7.0,59,0.00,,,0.00,,2013-04-07 22:14:00,
2013-04-07 18:24:00,48.0,36.0,30.09,WSW,244,3.0,12.0,63,0.00,,,0.00,,2013-04-07 22:24:00,
2013-04-07 18:34:00,47.0,36.0,30.09,NNE,30,3.0,8.0,66,0.00,,,0.00,,2013-04-07 22:34:00,
2013-04-07 18:43:00,47.0,36.0,30.09,NNE,30,3.0,8.0,66,0.00,,,0.00,,2013-04-07 22:43:00,
2013-04-07 18:53:00,47.0,37.0,30.09,West,264,2.0,8.0,68,0.00,,,0.00,,2013-04-07 22:53:00,
2013-04-07 19:04:00,47.0,38.0,30.11,West,274,4.0,12.0,70,0.00,,,0.00,,2013-04-07 23:04:00,
2013-04-07 19:13:00,47.0,38.0,30.11,West,274,4.0,12.0,70,0.00,,,0.00,,2013-04-07 23:13:00,
2013-04-07 19:23:00,46.0,38.0,30.10,NNE,15,1.0,11.0,73,0.00,,,0.00,,2013-04-07 23:23:00,
2013-04-07 19:33:00,46.0,38.0,30.10,WNW,296,1.0,6.0,73,0.00,,,0.00,,2013-04-07 23:33:00,
2013-04-07 19:43:00,46.0,38.0,30.10,WNW,296,1.0,6.0,73,0.00,,,0.00,,2013-04-07 23:43:00,
2013-04-07 19:52:00,45.0,39.0,30.08,NW,307,0.0,8.0,79,0.00,,,0.00,,2013-04-07 23:52:00,
2013-04-07 20:03:00,45.0,39.0,30.09,WNW,301,1.0,6.0,80,0.00,,,0.00,,2013-04-08 00:03:00,
2013-04-07 20:12:00,45.0,39.0,30.09,WNW,301,1.0,6.0,80,0.00,,,0.00,,2013-04-08 00:12:00,
2013-04-07 20:23:00,45.0,39.0,30.10,West,267,1.0,5.0,80,0.00,,,0.00,,2013-04-08 00:23:00,
2013-04-07 20:33:00,45.0,39.0,30.11,East,88,0.0,4.0,79,0.00,,,0.00,,2013-04-08 00:33:00,
2013-04-07 20:42:00,45.0,39.0,30.11,East,88,0.0,4.0,79,0.00,,,0.00,,2013-04-08 00:42:00,
2013-04-07 20:52:00,45.0,39.0,30.11,West,266,0.0,7.0,80,0.00,,,0.00,,2013-04-08 00:52:00,
2013-04-07 21:03:00,44.0,38.0,30.11,WNW,297,0.0,5.0,79,0.00,,,0.00,,2013-04-08 01:03:00,
2013-04-07 21:12:00,44.0,38.0,30.11,WNW,297,0.0,5.0,79,0.00,,,0.00,,2013-04-08 01:12:00,
2013-04-07 21:23:00,44.0,38.0,30.10,SSW,213,1.0,5.0,80,0.00,,,0.00,,2013-04-08 01:23:00,
2013-04-07 21:34:00,44.0,39.0,30.10,WNW,286,1.0,6.0,81,0.00,,,0.00,,2013-04-08 01:34:00,
2013-04-07 21:44:00,44.0,39.0,30.10,WNW,286,1.0,6.0,81,0.00,,,0.00,,2013-04-08 01:44:00,
2013-04-07 21:54:00,44.0,39.0,30.10,ENE,73,0.0,6.0,82,0.00,,,0.00,,2013-04-08 01:54:00,
2013-04-07 22:03:00,44.0,39.0,30.10,SW,236,0.0,4.0,82,0.00,,,0.00,,2013-04-08 02:03:00,
2013-04-07 22:12:00,44.0,39.0,30.10,SW,236,0.0,4.0,82,0.00,,,0.00,,2013-04-08 02:12:00,
2013-04-07 22:22:00,44.0,39.0,30.10,WNW,290,0.0,2.0,84,0.00,,,0.00,,2013-04-08 02:22:00,
2013-04-07 22:33:00,43.0,39.0,30.10,WNW,282,1.0,4.0,85,0.00,,,0.00,,2013-04-08 02:33:00,
2013-04-07 22:47:00,43.0,39.0,30.10,WNW,282,1.0,4.0,85,0.00,,,0.00,,2013-04-08 02:47:00,
2013-04-07 22:53:00,43.0,39.0,30.09,West,279,0.0,5.0,86,0.00,,,0.00,,2013-04-08 02:53:00,
2013-04-07 23:08:00,43.0,40.0,30.09,WNW,294,1.0,6.0,88,0.00,,,0.00,,2013-04-08 03:08:00,
2013-04-07 23:15:00,43.0,40.0,30.09,WNW,294,1.0,6.0,88,0.00,,,0.00,,2013-04-08 03:15:00,
2013-04-07 23:25:00,43.0,40.0,30.09,West,280,0.0,3.0,88,0.00,,,0.00,,2013-04-08 03:25:00,
2013-04-07 23:36:00,43.0,40.0,30.09,SSW,206,0.0,4.0,89,0.00,,,0.00,,2013-04-08 03:36:00,
2013-04-07 23:47:00,43.0,40.0,30.09,SSW,206,0.0,4.0,89,0.00,,,0.00,,2013-04-08 03:47:00,
2013-04-07 23:53:00,43.0,40.0,30.09,North,5,0.0,3.0,89,0.00,,,0.00,,2013-04-08 03:53:00,